Weather History for CYWG - October, 2013

Change the Weather History Date:

Friday, October 4, 2013

  Actual Average Record
Temperature  
Mean Temperature 42 °F -  
Max Temperature 46 °F 56 °F 78 °F (2011)
Min Temperature 37 °F 33 °F 21 °F (2004)
Degree Days  
Heating Degree Days 24    
Moisture  
Dew Point 32 °F    
Average Humidity 72    
Maximum Humidity 87    
Minimum Humidity 57    
Precipitation  
Precipitation 0.00 in - - ()
Sea Level Pressure  
Sea Level Pressure 30.38 in    
Wind  
Wind Speed 12 mph ()    
Max Wind Speed 22 mph    
Max Gust Speed 31 mph    
Visibility 15.0 miles    
Events      
Averages and records for this station are not official NWS values.
T = Trace of Precipitation, MM = Missing Value Source: Averaged Metar Reports

Daily Weather History Graph

Daily Weather History Graph

Search for Another Location

Airport or City:

Trip Planner

Search our weather history database for the weather conditions in past years. The results will help you decide how hot, cold, wet, or windy it might be!

Date:

Astronomy

Oct. 04, 2013 Rise Set
Actual Time 7:33 AM CDT 7:00 PM CDT
Civil Twilight 7:01 AM CDT 7:32 PM CDT
Nautical Twilight 6:24 AM CDT 8:09 PM CDT
Astronomical Twilight 5:46 AM CDT 8:47 PM CDT
Moon 7:12 AM CDT (10/4) 6:39 PM CDT (10/4)
Length of Visible Light 12h 30m
Length of Day
11h 26m
Waning Crescent, 0% of the Moon is Illuminated
Oct 4
Waning Crescent
Oct 4
New
Oct 11
First Quarter
Oct 18
Full
Oct 26
Last Quarter

Hourly Weather History & Observations

Time (CDT) Temp. Windchill Dew Point Humidity Pressure Visibility Wind Dir Wind Speed Gust Speed Precip Events Conditions
12:00 AM 42.8 °F 35.8 °F 37.4 °F 81% 30.30 in 15.0 mi NNE 13.8 mph 21.9 mph N/A   Mostly Cloudy
1:00 AM 41.0 °F 33.9 °F 35.6 °F 81% 30.32 in 15.0 mi NNE 12.7 mph 19.6 mph N/A   Mostly Cloudy
2:00 AM 41.0 °F 33.1 °F 35.6 °F 81% 30.34 in 15.0 mi North 15.0 mph 21.9 mph N/A   Overcast
3:00 AM 39.2 °F 32.5 °F 35.6 °F 87% 30.34 in 15.0 mi North 10.4 mph - N/A   Overcast
4:00 AM 39.2 °F 30.8 °F 33.8 °F 81% 30.34 in 15.0 mi North 15.0 mph - N/A   Overcast
5:00 AM 39.2 °F 31.6 °F 33.8 °F 81% 30.35 in 15.0 mi North 12.7 mph - N/A   Overcast
6:00 AM 37.4 °F 29.3 °F 32.0 °F 81% 30.38 in 15.0 mi North 12.7 mph - N/A   Mostly Cloudy
7:00 AM 37.4 °F 30.8 °F 33.8 °F 87% 30.38 in 15.0 mi North 9.2 mph - N/A   Mostly Cloudy
8:00 AM 39.2 °F 33.0 °F 33.8 °F 81% 30.41 in 15.0 mi NNE 9.2 mph - N/A   Mostly Cloudy
9:00 AM 39.2 °F 33.0 °F 30.2 °F 70% 30.43 in 15.0 mi NE 9.2 mph - N/A   Mostly Cloudy
10:00 AM 39.2 °F 32.5 °F 30.2 °F 70% 30.43 in 15.0 mi NE 10.4 mph - N/A   Mostly Cloudy
11:00 AM 39.2 °F 31.2 °F 28.4 °F 65% 30.43 in 15.0 mi NE 13.8 mph - N/A   Overcast
12:00 PM 41.0 °F 33.5 °F 30.2 °F 65% 30.43 in 15.0 mi NNE 13.8 mph - N/A   Overcast
1:00 PM 41.0 °F 33.1 °F 32.0 °F 70% 30.41 in 15.0 mi NNE 15.0 mph 21.9 mph N/A   Overcast
2:00 PM 46.4 °F 38.5 °F 32.0 °F 57% 30.40 in 15.0 mi NNE 21.9 mph 31.1 mph N/A   Mostly Cloudy
3:00 PM 44.6 °F 36.6 °F 32.0 °F 61% 30.39 in 15.0 mi NNE 19.6 mph 31.1 mph N/A   Overcast
4:00 PM 44.6 °F 36.1 °F 32.0 °F 61% 30.38 in 15.0 mi NNE 21.9 mph 27.6 mph N/A   Overcast
5:00 PM 44.6 °F 36.1 °F 32.0 °F 61% 30.38 in 15.0 mi NNE 21.9 mph - N/A   Mostly Cloudy
6:00 PM 44.6 °F 36.6 °F 32.0 °F 61% 30.37 in 15.0 mi NNE 19.6 mph 27.6 mph N/A   Mostly Cloudy
7:00 PM 42.8 °F 35.8 °F 32.0 °F 66% 30.38 in 15.0 mi NNE 13.8 mph 19.6 mph N/A   Mostly Cloudy
8:00 PM 42.8 °F 36.6 °F 32.0 °F 66% 30.39 in 15.0 mi NNE 11.5 mph - N/A   Mostly Cloudy
9:00 PM 41.0 °F 35.2 °F 32.0 °F 70% 30.40 in 15.0 mi NNE 9.2 mph - N/A   Mostly Cloudy
10:00 PM 39.2 °F 32.5 °F 30.2 °F 70% 30.38 in 15.0 mi NNE 10.4 mph - N/A   Mostly Cloudy
11:00 PM 39.2 °F 32.5 °F 30.2 °F 70% 30.36 in 15.0 mi NNE 10.4 mph - N/A   Mostly Cloudy